Regional Weather Roundup
Issued by NWS

Home | Current Version | Previous Version | Graphics & Text | Print | Product List | Glossary On
Versions: 1 2 3 4 5 6 7 8 9 10 11 12 13 14 15 16 17 18 19 20 21 22 23 24 25 26 27 28 29 30 31 32 33 34 35 36 37 38 39 40 41 42 43 44 45 46 47 48 49 50
000
ASUS43 KBIS 040020
RWRND

NORTH DAKOTA REGIONAL WEATHER ROUNDUP
NATIONAL WEATHER SERVICE BISMARCK ND
700 PM CDT SUN MAY 03 2015

NOTE: "FAIR" INDICATES FEW OR NO CLOUDS BELOW 12,000 FEET WITH NO
SIGNIFICANT WEATHER AND/OR OBSTRUCTIONS TO VISIBILITY.


NDZ001>003-009>011-017-040100-
NORTHWEST NORTH DAKOTA

CITY           SKY/WX    TMP DP  RH WIND       PRES   REMARKS
WILLISTON      LGT RAIN  62  18  18 NW9       30.03R
6HR MIN TEMP:  60; 6HR MAX TEMP:  66; 6HR PCP: TRACE;

MINOT          MOSUNNY   61  23  23 NW20G25   30.00R
MINOT AFB      MOSUNNY   65  25  22 NW16G24   30.00R
$$

NDZ018>021-031>035-040>046-040100-
SOUTHWEST NORTH DAKOTA

CITY           SKY/WX    TMP DP  RH WIND       PRES   REMARKS
BISMARCK       MOSUNNY   64  20  18 NW13G24   30.02S
6HR MIN TEMP:  64; 6HR MAX TEMP:  68;

DICKINSON      MOSUNNY   61  26  26 N8        30.02S
GARRISON         N/A     64  22  20 NW17      30.00S
6HR MIN TEMP:  62; 6HR MAX TEMP:  66;

HETTINGER ARPT SUNNY     64  25  22 NE7       30.03R
$$

NDZ004>008-012>016-024-026-027-054-040100-
NORTHEAST NORTH DAKOTA

CITY           SKY/WX    TMP DP  RH WIND       PRES   REMARKS
GRAND FORKS    MOSUNNY   66  26  22 NW13      29.93R
GRND FRKS AFB  SUNNY     66  25  21 N10       29.93S
DEVILS LAKE    MOSUNNY   63  25  23 NW15      29.97R
$$

NDZ022-023-025-028>030-036>039-047>053-040100-
SOUTHEAST NORTH DAKOTA

CITY           SKY/WX    TMP DP  RH WIND       PRES   REMARKS
FARGO          MOSUNNY   67  21  17 NW15      29.92S
6HR MIN TEMP:  63; 6HR MAX TEMP:  72;

JAMESTOWN      MOSUNNY   65  22  19 NW15G22   29.97R
$$



USA.gov is the U.S. government's official web portal to all federal, state and local government web resources and services.